Location: Newark
(49.8969°N, 3.3422°E)
Time: 22:43:53
(UTC+00:00)

Tiros 1 - Visible Passes

Search period start: 08 May 2021 00:00
Search period end: 18 May 2021 00:00
Orbit: 630 x 664 km, 48.4° (Epoch: 07 May)

Date Brightness Start Highest point End Pass type
(mag) Time Alt. Az. Time Alt. Az. Time Alt. Az.
08 May 8.3 02:18:00 21° S 02:20:08 29° SSE 02:24:14 10° E visible
09 May 9.1 01:04:52 16° SE 01:04:52 16° SE 01:07:17 10° ESE visible
09 May 7.7 02:42:30 17° SW 02:45:50 46° SSE 02:50:23 10° E visible
10 May 8.2 01:29:20 27° SSE 01:29:56 28° SSE 01:33:59 10° E visible
10 May 7.3 03:06:58 10° WSW 03:11:41 64° SSE 03:16:22 10° E visible
11 May 9.4 00:16:08 12° ESE 00:16:08 12° ESE 00:16:54 10° ESE visible
11 May 7.6 01:53:45 29° SSW 01:55:37 44° SSE 02:00:09 10° E visible
12 May 8.5 00:40:31 25° SE 00:40:31 25° SE 00:43:43 10° E visible
12 May 7.2 02:18:08 19° WSW 02:21:27 62° SSE 02:26:08 10° E visible
13 May 7.6 01:04:51 40° S 01:05:25 42° SSE 01:09:55 10° E visible
13 May 7.1 02:42:35 10° W 02:47:21 74° S 02:52:06 10° E visible
13 May 8.9 23:51:30 19° ESE 23:51:30 19° ESE 23:53:26 10° E visible
14 May 7.2 01:29:07 31° SW 01:31:13 60° SSE 01:35:55 10° E visible
14 May 7.2 03:08:31 10° W 03:13:18 74° S 03:18:02 10° E visible
15 May 7.8 00:15:43 39° SE 00:15:43 39° SE 00:19:40 10° E visible
15 May 7.1 01:53:20 16° WSW 01:57:08 73° S 02:01:53 10° E visible
15 May 9.2 23:02:14 14° E 23:02:14 14° E 23:03:10 10° E visible
16 May 7.2 00:39:51 45° SW 00:40:59 58° SSE 00:45:41 10° E visible
16 May 7.1 02:18:16 10° W 02:23:04 75° S 02:27:49 10° E visible
16 May 8.1 23:26:14 32° ESE 23:26:14 32° ESE 23:29:26 10° E visible
17 May 7.1 01:03:50 22° WSW 01:06:53 72° S 01:11:39 10° E visible
17 May 7.2 02:44:14 10° W 02:48:59 64° SSW 02:53:41 10° ESE visible
17 May 9.3 22:12:25 12° E 22:12:25 12° E 22:12:52 10° E visible
17 May 7.2 23:49:59 50° SSW 23:50:45 56° SSE 23:55:27 10° E visible
